Regional Weather Roundup
Issued by NWS

Home | Current Version | Previous Version | Graphics & Text | Print | Product List | Glossary Off
Versions: 1 2 3 4 5 6 7 8 9 10 11 12 13 14 15 16 17 18 19 20 21 22 23 24 25 26 27 28 29 30 31 32 33 34 35 36 37 38 39 40 41 42 43 44 45 46 47 48 49 50

000
ASUS43 KTOP 232008
RWRKS

WEATHER ROUNDUP FOR KANSAS
NATIONAL WEATHER SERVICE GOODLAND KS
300 PM CDT SAT MAY 23 2015

NOTE:  "FAIR" INDICATES FEW OR NO CLOUDS BELOW 12,000 FEET WITH NO
SIGNIFICANT WEATHER AND/OR OBSTRUCTIONS TO VISIBILITY.

KSZ001>006-013>018-027>032-041>047-232100-
NORTHWEST KANSAS

CITY           SKY/WX    TMP DP  RH WIND       PRES   REMARKS
GOODLAND       MOSUNNY   65  53  65 SE12      29.95F
HAYS           CLOUDY    61  54  77 E9G18     29.99R
HILL CITY      CLOUDY    63  55  75 E12       29.99F
RUSSELL        CLOUDY    59  57  93 E23G29    29.98S
$$

KSZ061>065-074>080-084>089-232100-
SOUTHWEST KANSAS

CITY           SKY/WX    TMP DP  RH WIND       PRES   REMARKS
DODGE CITY     CLOUDY    59  54  83 SE18      29.96S
ELKHART          N/A     63  53  70 SE13        N/A
GARDEN CITY    PTSUNNY   66  55  67 SE23G35   29.94F
GREAT BEND     CLOUDY    57  54  88 E21       29.95F
LIBERAL        CLOUDY    63  55  77 SE15      29.97F
PRATT          CLOUDY    55  54  94 E17G25    29.98F
$$

KSZ066>073-081>083-090>101-232100-
SOUTHEAST KANSAS

CITY           SKY/WX    TMP DP  RH WIND       PRES   REMARKS
CHANUTE        CLOUDY    64  62  93 E8        30.09F
COFFEYVILLE    CLOUDY    70  62  76 SE16      30.07F
HUTCHINSON     TSTM      59  56  89 NE6       30.09F FOG
MEDICINE LODGE   N/A     57  57 100 E14       30.01F
NEWTON         CLOUDY    57  54  88 N7        30.12R THUNDER
PARSONS        CLOUDY    69  64  84 VRB6      30.09F
WICHITA INTL   TSTM      59  57  93 N8        30.09R VSB 1
WICHITA JABRA  TSTM      58  58 100 NW9       30.11R FOG
WICHITA MCCONL TSTM      59  58  97 VRB5      30.11R FOG
WINFIELD       CLOUDY    62  61  96 E10       30.02F THUNDER FOG
$$

KSZ007>012-019>026-033>040-048>060-102>105-232100-
NORTHEAST KANSAS

CITY           SKY/WX    TMP DP  RH WIND       PRES   REMARKS
CONCORDIA      LGT RAIN  59  58  96 E5        30.10F FOG
EMPORIA        CLOUDY    61  59  93 E13G23    30.08F
LAWRENCE       CLOUDY    66  59  78 SE12      30.13F
MANHATTAN      TSTM      61  60  97 W8        30.12R VSB 1/2
MARYSVILLE     CLOUDY    63  59  88 SW13      30.14R
OLATHE IND     CLOUDY    65  60  84 SE14      30.15F
OLATHE EXE     CLOUDY    65  60  84 SE9       30.15F
SALINA         RAIN      61  58  90 NE3       30.10F FOG
TOPEKA BILLARD CLOUDY    66  60  81 SE13      30.12F
TOPEKA FORBES  CLOUDY    67  59  75 SE13      30.11F
$$



USA.gov is the U.S. government's official web portal to all federal, state and local government web resources and services.